GFSFLT1_925_thetae_000.txt.gz
Theta_e
310 312 313 315 316 316 317 314 314 312 311 311 311 310 310 310 309 309 309 309 310 311 311 311 308 308 308 307 304 304 304 304
308 310 312 313 314 316 314 313 312 311 311 311 310 310 310 309 309 309 308 308 308 309 311 311 310 308 307 307 305 305 304 304
307 310 312 314 314 313 313 312 311 311 311 310 309 309 309 309 310 310 309 308 308 308 307 308 310 308 307 307 306 305 304 304
308 308 311 311 312 312 312 311 310 309 308 308 309 308 309 309 310 310 310 310 309 307 307 307 308 310 307 306 307 305 304 304
308 308 309 310 310 310 310 309 309 310 310 309 308 308 307 308 307 307 307 308 307 307 306 305 307 310 308 306 306 306 304 303
308 308 308 309 309 310 311 311 310 309 309 308 307 305 304 304 304 305 304 304 304 305 306 305 304 305 306 305 305 304 303 301
309 309 310 310 310 310 310 310 309 309 308 307 304 304 304 303 303 303 303 303 303 303 304 304 302 302 302 301 299 296 296 297
305 306 308 309 309 309 309 308 308 307 306 305 305 305 305 302 301 302 302 302 302 302 301 300 298 297 297 297 297 297 297 297
306 306 307 308 308 308 308 307 307 306 307 306 306 305 304 301 301 301 301 301 299 298 298 297 296 297 298 298 298 297 297 296
306 307 308 308 308 308 307 307 307 306 306 305 305 305 302 301 300 300 299 299 297 297 297 298 298 298 298 299 298 295 292 292
307 308 309 309 308 308 307 306 306 306 305 305 305 302 300 300 299 298 297 297 297 297 297 295 294 294 294 294 292 291 292 292
305 307 308 308 308 308 307 305 305 305 303 303 301 300 299 297 296 296 295 296 294 293 293 293 293 292 292 293 293 292 291 291
305 307 307 308 307 307 307 305 304 302 302 300 299 299 297 294 294 294 295 293 292 292 292 292 292 291 291 292 290 289 288 288
305 306 307 308 307 306 306 304 303 302 300 299 299 297 293 293 293 293 293 294 293 292 292 292 292 291 291 290 288 287 287 287
305 305 306 307 305 305 304 303 301 299 299 299 297 294 292 292 294 294 294 294 294 293 293 292 291 289 288 287 287 287 287 286
305 305 305 304 304 304 302 301 299 299 299 298 297 296 295 294 294 294 294 294 293 293 293 292 288 287 287 286 286 286 285 285
305 303 303 303 303 301 299 298 298 298 297 297 296 295 295 294 292 292 292 293 293 292 290 287 286 286 286 286 285 284 284 283
301 301 302 302 300 299 298 297 297 297 294 290 291 291 291 290 290 290 288 287 287 286 286 285 285 285 285 284 284 283 282 282
302 301 301 300 298 297 295 294 294 291 290 291 292 291 288 287 287 287 286 285 285 284 284 285 284 283 282 282 282 281 281 281

GFSFLT1_925_thetae_003.txt.gz
Theta_e
311 312 314 320 324 323 319 317 314 315 314 312 311 311 311 310 309 309 309 309 309 310 310 309 310 311 310 309 309 307 305 305
310 311 312 315 317 317 317 315 314 314 311 309 310 309 309 309 309 308 308 308 307 307 308 308 309 311 311 310 308 307 306 304
310 311 312 313 315 316 315 311 309 308 308 308 308 308 309 309 308 308 307 307 307 307 307 307 307 309 310 310 309 308 306 306
311 311 312 312 311 310 309 308 309 310 309 309 308 308 307 307 306 305 304 304 303 304 304 304 305 307 308 308 309 308 308 306
311 310 310 309 308 309 310 309 309 308 308 307 305 304 305 305 304 303 301 300 302 303 303 303 303 306 307 307 308 308 308 308
310 309 310 309 309 309 308 308 308 308 307 306 306 305 305 304 303 302 301 300 301 302 302 302 302 302 303 305 306 306 306 306
309 309 309 308 308 308 308 308 308 308 306 306 305 305 305 304 303 301 301 301 300 301 301 301 301 300 300 300 299 300 300 300
311 309 309 308 308 308 308 307 307 306 306 305 305 306 305 303 301 300 300 300 300 299 299 298 298 297 298 298 298 298 298 298
311 309 309 309 308 307 307 306 306 306 305 305 305 306 305 301 300 299 299 298 298 297 297 296 297 298 298 299 299 298 297 295
310 310 309 309 308 307 307 306 304 305 305 305 305 304 301 300 299 298 297 297 297 297 297 297 296 295 295 295 294 293 293 292
311 310 310 308 308 307 308 306 305 304 305 303 302 300 300 299 297 296 295 296 297 295 293 292 293 293 293 293 293 293 293 293
311 310 308 307 308 306 306 306 305 304 303 302 300 300 299 295 294 294 294 295 293 293 293 293 293 293 292 291 291 291 291 291
310 309 308 308 307 306 306 305 303 302 301 300 299 297 295 293 294 294 294 294 292 293 293 293 293 292 293 292 290 289 289 289
310 309 308 307 305 305 305 303 302 300 299 298 297 297 296 293 294 295 295 295 294 294 294 293 293 291 289 288 287 287 287 287
309 309 307 305 304 303 302 301 299 298 298 298 297 296 295 295 294 295 294 294 293 292 293 293 292 290 288 286 286 286 286 285
308 306 304 303 302 302 300 299 298 298 298 297 295 296 295 293 292 292 292 292 293 292 292 290 287 286 286 286 286 285 285 285
304 303 302 302 302 300 298 297 297 297 294 292 291 291 292 291 291 290 290 288 287 286 286 285 285 285 285 286 285 286 285 284
302 301 301 301 301 298 296 296 295 294 292 292 292 292 290 288 287 287 286 286 285 285 285 284 285 285 284 283 283 283 283 283
301 301 301 302 300 296 296 294 293 293 292 293 292 290 288 287 287 286 285 284 284 284 284 284 283 282 281 281 281 281 282 281

GFSFLT1_925_thetae_006.txt.gz
Theta_e
324 321 320 322 326 329 329 323 322 322 321 318 316 315 315 313 313 312 312 312 312 313 314 315 316 316 315 314 314 314 312 311
318 317 317 320 326 326 323 322 316 315 314 313 313 313 313 313 312 312 312 311 311 311 311 311 312 313 313 314 314 314 314 312
317 318 318 319 320 319 316 314 313 313 312 312 312 312 312 312 311 311 309 307 307 307 308 308 309 309 310 311 313 313 314 313
318 317 316 316 315 314 314 313 313 312 311 311 312 312 311 311 309 308 307 306 305 305 306 306 307 307 307 308 309 310 312 312
316 316 316 315 315 314 313 312 312 310 310 310 310 310 310 309 308 307 306 304 304 304 304 305 305 306 306 306 306 307 308 310
317 315 314 314 313 313 313 312 311 311 309 309 309 309 308 308 307 305 303 303 303 303 304 304 305 304 304 305 306 306 307 308
315 314 314 314 313 313 312 311 311 310 309 308 308 309 308 307 305 303 303 302 302 302 303 303 303 303 303 303 303 303 303 304
316 315 315 314 314 313 311 311 310 310 309 307 307 306 306 305 304 302 301 301 301 302 302 302 302 302 301 301 302 301 300 299
315 314 314 314 313 312 312 311 310 309 307 306 305 306 306 304 302 301 300 300 301 301 301 301 301 301 301 301 300 298 298 299
315 314 313 313 313 312 311 310 310 308 307 307 306 306 303 302 300 299 299 300 300 300 300 299 297 297 297 296 296 295 295 294
315 314 313 312 312 312 311 311 310 309 308 306 305 303 301 299 298 298 298 299 300 298 297 296 296 296 296 295 295 294 294 293
315 313 312 312 312 311 310 310 309 308 305 304 302 301 299 298 298 297 298 297 297 296 296 296 296 295 294 293 293 293 293 292
314 313 312 312 311 310 309 307 305 304 302 301 301 299 298 298 298 297 297 297 297 296 296 295 295 295 294 293 293 292 291 291
313 313 312 311 308 306 304 304 303 302 301 300 299 299 298 298 297 296 296 296 295 295 295 294 294 293 293 292 291 290 290 290
313 312 310 307 304 304 304 303 302 300 300 299 299 298 298 296 295 295 294 293 293 293 292 291 291 290 289 289 289 289 289 288
311 310 306 305 304 304 303 302 300 300 299 298 296 295 294 294 293 292 291 290 289 288 288 288 288 287 287 287 287 287 288 287
307 303 303 302 302 304 302 300 299 299 298 296 294 294 293 292 291 290 289 288 288 287 287 287 287 287 285 284 284 285 286 286
303 302 302 302 303 303 300 299 298 298 296 295 294 294 292 290 289 288 288 288 287 287 287 287 286 286 284 282 282 283 284 284
302 302 301 302 303 301 299 298 297 296 295 294 294 292 290 289 288 288 287 287 287 286 286 285 285 285 283 282 281 281 283 284

GFSFLT1_925_thetae_009.txt.gz
Theta_e
327 329 326 326 326 326 328 328 321 321 322 321 318 317 317 316 316 315 315 315 315 314 314 314 314 314 314 315 316 316 317 316
326 323 322 324 328 328 327 323 321 319 318 317 316 316 316 316 315 315 314 312 311 310 310 310 310 310 310 311 312 314 315 315
321 321 321 323 325 324 321 319 317 316 316 315 315 315 315 315 314 313 312 310 309 309 308 308 308 308 308 309 310 312 312 313
321 320 320 320 320 318 317 316 315 315 314 314 314 314 314 313 312 312 311 309 308 307 306 307 307 307 307 308 308 308 310 310
319 319 319 319 318 317 316 315 314 313 313 313 313 313 312 312 311 310 309 307 306 305 305 306 306 306 306 306 306 307 307 308
319 318 318 317 317 317 316 315 314 313 313 312 312 312 312 312 311 308 306 305 305 304 304 304 305 305 305 305 305 305 305 305
318 317 317 317 317 316 315 315 314 313 313 313 312 311 310 308 307 306 305 304 303 303 303 304 304 304 304 304 304 304 303 302
319 318 317 317 316 316 315 314 314 313 312 311 309 308 308 308 306 305 303 302 302 302 303 303 303 303 303 303 303 301 300 299
318 317 317 316 316 316 315 315 314 313 312 311 310 309 308 306 304 302 301 301 301 302 302 302 302 301 300 300 300 299 298 298
317 316 316 315 315 315 314 314 313 313 312 310 309 307 305 304 302 301 300 300 300 300 301 300 299 298 298 297 297 296 297 297
317 316 315 315 314 313 313 313 312 311 310 308 306 304 303 301 300 300 299 299 299 299 298 298 297 297 296 295 296 296 296 295
316 315 314 314 313 313 313 312 311 308 307 305 304 303 301 300 299 299 299 298 298 298 298 297 297 296 296 296 295 295 295 295
315 314 313 313 313 312 311 309 306 306 304 303 302 301 300 300 299 298 297 297 297 297 296 296 295 296 295 295 294 293 293 293
314 314 313 312 311 309 308 306 305 304 303 302 301 300 299 299 297 296 296 295 295 294 294 294 293 292 291 291 290 291 291 291
313 312 310 309 308 306 305 304 304 303 302 300 299 298 297 296 296 295 294 293 291 290 290 290 289 289 289 289 289 289 288 289
311 310 308 305 304 304 303 304 303 301 301 299 298 297 296 295 294 293 292 291 290 289 289 289 289 289 288 287 287 287 286 287
309 307 304 304 303 303 303 303 301 300 300 298 297 296 295 294 293 291 290 289 289 289 289 288 288 288 286 285 284 284 284 285
308 305 304 303 302 302 303 302 301 300 299 298 297 296 295 293 292 290 289 289 289 288 288 288 287 287 285 284 283 283 283 284
305 304 303 301 300 301 302 302 300 300 298 297 296 295 294 292 291 290 289 289 289 288 288 287 287 286 285 283 282 282 282 283

GFSFLT1_925_thetae_012.txt.gz
Theta_e
326 325 326 326 326 326 329 329 323 321 322 322 320 318 318 317 317 316 315 315 313 311 311 311 311 311 311 312 312 311 313 314
324 323 323 326 327 326 326 324 322 321 320 318 317 317 316 316 316 314 313 312 311 310 309 309 308 309 309 309 309 310 310 311
323 324 325 324 323 322 320 318 317 316 317 316 315 315 315 315 315 313 312 311 309 308 307 307 308 307 307 308 309 309 308 308
322 322 321 320 319 318 318 316 315 314 314 315 314 314 314 313 313 312 312 311 309 307 306 306 305 307 306 306 307 307 308 307
321 321 320 319 318 317 316 316 315 314 313 314 314 313 314 314 314 312 311 308 307 305 304 304 304 305 305 306 306 305 306 307
320 319 319 318 318 317 316 315 315 315 314 313 313 314 312 311 309 309 307 306 304 303 303 303 304 303 304 305 304 305 305 303
319 318 318 318 318 317 316 315 315 314 314 313 311 310 310 309 308 306 304 303 302 302 302 302 303 304 304 303 303 302 301 301
320 319 318 317 317 316 316 316 316 314 313 312 312 310 309 307 306 304 302 302 302 301 301 302 302 301 300 300 300 300 299 299
319 317 316 316 316 316 316 316 315 314 313 312 311 308 306 305 303 301 301 301 301 300 300 300 299 299 298 298 298 297 297 297
318 317 316 316 315 315 314 314 314 312 310 308 308 306 305 303 301 300 300 300 300 299 298 298 298 298 297 297 297 296 296 296
318 316 316 315 315 314 313 312 311 310 308 306 305 304 304 302 301 300 300 298 297 297 298 298 298 297 297 296 296 295 295 295
316 315 315 314 313 313 311 310 309 308 307 305 304 303 302 301 300 299 298 297 297 297 297 296 296 295 295 294 293 294 294 293
315 314 313 312 311 311 310 308 307 306 305 304 302 302 300 299 299 298 296 296 296 295 294 294 293 292 291 291 291 291 291 292
314 313 312 311 310 309 307 307 305 305 304 302 302 300 299 298 297 296 296 295 294 292 291 291 290 290 290 289 289 290 289 288
313 312 310 308 306 305 305 304 304 304 303 302 301 299 298 297 296 295 294 293 292 291 290 290 289 289 289 289 288 287 287 286
311 310 308 306 305 304 304 303 304 304 302 301 300 299 297 297 296 294 293 291 290 290 289 289 289 289 288 287 286 285 285 285
308 308 306 305 304 304 303 302 303 303 301 301 300 299 297 296 295 294 292 291 290 289 289 289 288 288 287 286 285 284 284 284
307 306 305 304 302 300 300 301 302 302 302 301 300 297 296 296 295 293 291 290 289 289 289 289 288 287 286 285 284 283 282 282
305 304 302 301 300 300 299 298 298 298 300 299 299 297 296 295 294 292 291 290 289 289 289 288 287 286 285 284 284 282 282 281

GFSFLT1_925_thetae_015.txt.gz
Theta_e
324 326 326 327 329 329 329 327 325 323 322 322 320 319 317 316 315 314 313 312 311 311 310 309 308 307 307 308 307 306 308 310
323 322 323 324 324 325 323 319 317 321 320 318 315 315 315 315 313 312 312 312 312 311 309 306 306 307 306 306 306 305 306 307
320 320 319 318 318 317 317 316 316 315 315 315 314 315 314 314 313 313 311 310 309 307 305 305 305 305 306 305 304 306 307 306
319 318 317 317 316 316 315 315 314 314 314 314 313 313 313 314 313 312 309 307 306 304 303 303 303 303 304 303 303 306 305 306
318 318 317 317 316 316 315 315 314 314 313 313 313 313 313 311 309 308 307 305 304 302 302 302 301 301 302 304 305 304 304 304
316 317 318 318 317 316 315 315 315 314 314 314 313 311 309 310 307 306 305 304 302 301 300 300 302 303 303 302 302 302 302 301
316 318 318 317 317 316 316 315 315 314 314 313 311 310 308 307 305 304 303 301 301 300 301 301 301 301 301 300 300 300 300 299
313 316 317 317 317 316 316 316 315 314 313 312 310 308 306 305 303 302 301 300 300 300 299 298 298 298 298 298 298 298 297 297
313 315 315 316 315 315 315 314 314 311 310 309 307 305 305 304 303 301 300 300 300 297 297 298 298 297 297 297 296 296 296 296
313 315 314 314 313 313 313 312 310 309 308 306 305 304 304 303 301 301 300 299 296 295 297 297 296 295 295 295 295 295 293 294
312 312 311 311 312 311 310 310 309 308 307 305 304 303 302 302 301 299 298 297 295 294 295 295 295 295 295 294 293 293 292 292
310 311 311 311 310 310 309 308 307 307 306 305 304 302 302 300 299 298 297 296 295 295 295 292 291 290 290 290 290 289 290 290
310 311 310 309 307 306 305 305 306 306 305 304 303 302 300 299 298 297 296 296 295 294 291 290 290 289 289 289 289 289 288 287
308 308 308 307 305 305 304 304 304 303 304 304 302 301 300 299 297 296 295 294 293 291 290 290 289 289 289 289 288 287 286 286
307 306 307 306 305 304 304 303 302 302 304 303 303 301 300 298 296 295 294 293 292 290 290 289 289 289 289 288 287 286 285 285
306 305 304 304 304 303 300 300 300 302 302 302 302 301 299 298 297 295 293 293 291 289 289 289 289 288 288 287 286 285 285 283
305 305 304 304 302 300 300 298 297 297 296 297 301 299 298 297 296 295 295 291 290 289 289 289 289 288 287 286 285 284 284 283
304 304 304 301 300 298 296 296 296 295 294 297 298 298 297 297 296 295 293 290 289 289 289 288 288 287 286 285 285 284 284 282
303 304 300 299 297 296 295 295 295 294 296 296 296 296 296 295 294 293 290 290 289 289 288 288 287 286 285 285 285 284 282 282

GFSFLT1_925_thetae_018.txt.gz
Theta_e
322 323 328 332 330 328 327 327 325 324 325 322 320 317 316 315 314 313 312 310 310 309 309 307 306 306 305 305 305 304 303 303
318 319 320 326 327 324 324 326 325 324 316 315 315 314 313 312 311 311 310 310 309 308 306 304 304 304 305 304 303 303 303 305
316 317 319 318 319 316 315 315 315 315 314 314 314 313 313 313 311 311 308 307 306 305 303 302 301 301 301 301 302 304 305 305
316 315 315 315 315 315 314 314 314 314 314 313 313 313 313 312 309 307 306 306 305 303 301 300 299 301 302 303 303 304 304 304
316 315 315 315 314 314 314 314 314 314 314 314 313 313 312 310 309 307 305 305 303 301 300 300 300 301 302 301 301 301 301 302
314 316 316 316 315 315 315 314 314 314 314 313 313 311 309 308 306 306 305 304 301 300 299 300 300 299 300 300 300 300 299 299
315 316 317 316 316 316 315 315 314 314 313 312 311 309 308 306 304 303 302 300 300 299 299 298 297 298 297 297 297 297 297 296
313 315 316 316 316 315 315 314 312 313 312 310 309 307 306 305 304 303 301 300 300 298 297 297 298 297 295 295 295 295 295 294
311 311 313 313 313 313 313 311 309 309 308 307 306 305 305 304 303 301 300 300 299 296 294 296 295 295 294 295 294 293 293 292
310 311 311 312 311 311 310 309 308 307 307 306 305 303 303 302 301 301 300 299 298 294 294 294 294 294 292 293 291 290 291 291
309 309 309 310 309 308 308 307 307 306 306 305 304 303 302 302 301 301 299 298 296 295 294 294 292 290 290 289 289 289 289 289
308 308 307 307 306 304 304 304 305 306 305 305 304 303 302 301 300 299 298 296 295 294 294 292 290 289 289 289 288 289 288 287
307 307 306 305 305 304 304 303 303 304 303 304 303 302 301 299 298 298 297 296 295 294 292 290 290 289 289 288 288 288 287 286
305 306 305 305 305 304 303 300 300 300 302 302 301 300 301 300 300 298 295 294 294 293 291 290 289 289 288 288 287 286 286 286
304 304 304 303 303 302 300 299 298 297 296 296 296 299 300 300 298 296 296 295 293 293 290 289 289 289 288 288 287 286 286 284
305 304 303 303 302 300 297 296 296 295 294 296 297 297 296 297 297 296 296 295 294 292 289 289 289 288 288 287 286 285 284 284
304 303 303 303 299 296 295 295 295 294 294 296 296 295 295 296 296 296 296 294 290 289 289 289 288 287 287 286 285 285 284 284
303 302 301 298 296 295 295 295 294 294 295 295 295 294 294 295 295 295 294 292 290 289 289 288 287 286 285 285 285 284 283 282
301 299 297 296 295 295 294 294 294 294 295 294 294 293 293 294 294 294 291 290 291 288 288 287 285 284 284 284 283 282 281 280

GFSFLT1_925_thetae_021.txt.gz
Theta_e
323 328 328 328 328 327 326 325 325 324 323 318 317 315 314 313 312 311 310 310 309 309 308 306 304 303 303 302 301 301 300 303
317 321 327 327 327 326 326 325 325 316 315 314 312 312 312 312 311 311 310 310 309 308 306 304 302 302 300 299 301 302 303 304
317 319 322 326 325 324 318 318 320 316 315 315 314 314 313 312 311 310 309 307 306 305 304 303 302 300 299 301 302 302 302 302
316 316 318 318 315 314 314 314 315 315 315 313 313 313 313 311 309 307 304 303 302 301 301 300 299 299 300 300 300 300 300 300
314 313 313 313 313 314 314 314 314 314 313 314 314 313 313 310 306 303 303 302 302 300 299 298 298 298 297 298 299 299 299 299
312 313 314 314 314 314 314 313 313 313 313 313 313 312 309 306 303 303 302 302 306 305 300 298 298 297 297 297 297 298 297 297
313 314 314 313 313 313 313 313 313 313 313 312 310 309 307 306 305 306 305 305 304 300 299 298 296 295 296 294 295 295 295 295
313 313 313 314 314 313 313 313 312 311 310 309 309 308 307 306 305 304 303 302 300 299 298 296 294 294 294 294 294 293 292 292
311 310 311 311 311 311 310 309 309 308 308 307 307 306 305 304 303 302 301 301 300 298 295 294 295 295 294 294 294 291 291 291
308 309 309 309 309 309 308 308 307 307 306 305 305 304 304 303 302 302 301 300 298 296 294 294 294 293 291 290 289 289 289 289
306 308 309 308 307 305 304 304 305 305 306 305 304 303 302 302 302 301 300 299 297 295 295 295 294 291 290 289 289 288 288 288
306 306 307 305 304 303 303 303 303 304 304 304 303 302 300 300 301 300 298 297 296 295 295 294 292 290 289 289 288 288 288 287
306 306 305 305 303 303 302 300 300 300 302 300 297 296 297 300 298 298 297 298 296 294 293 292 290 289 289 288 288 288 287 286
304 304 303 303 303 302 299 299 299 299 296 295 295 295 295 298 297 296 296 296 295 294 294 293 290 289 289 288 288 287 286 285
302 302 303 302 302 300 297 296 295 295 295 294 294 295 295 294 294 295 295 295 295 294 293 291 289 289 289 288 287 286 285 285
304 303 303 302 300 297 296 295 295 294 294 294 295 295 294 293 293 293 296 295 295 293 292 289 289 289 287 287 286 285 285 284
304 302 301 299 296 295 295 295 294 294 294 294 295 294 293 292 292 294 294 295 293 290 290 289 288 287 286 285 285 285 284 283
302 301 299 296 295 295 294 294 294 294 294 295 294 293 292 292 292 294 293 293 291 289 288 287 287 285 284 284 283 283 281 281
300 297 296 295 294 294 294 294 294 293 295 294 293 293 292 292 293 292 291 290 290 289 287 287 285 283 283 282 281 280 279 278

GFSFLT1_925_thetae_024.txt.gz
Theta_e
322 324 324 326 327 326 324 325 325 325 322 315 315 314 313 313 313 313 311 312 309 308 306 303 303 301 301 300 300 300 301 302
320 322 325 326 326 325 325 323 324 315 313 313 313 313 313 314 312 309 310 309 306 306 304 303 302 301 299 298 298 299 300 300
318 322 325 326 326 326 326 324 319 314 315 316 316 315 313 311 309 309 307 306 305 304 303 303 303 301 297 296 297 299 299 299
317 319 322 321 316 316 318 320 316 315 316 314 313 313 311 309 306 306 305 304 304 305 305 303 299 297 297 296 298 299 298 298
313 312 312 313 313 313 313 313 313 313 312 312 313 312 312 310 306 304 304 304 303 305 303 299 298 298 296 296 297 297 297 297
311 311 311 311 311 312 312 312 312 312 313 312 312 311 309 307 305 305 305 304 304 302 300 298 298 296 295 294 295 295 295 295
312 312 311 311 312 313 313 313 313 312 312 312 311 309 308 307 306 305 304 302 302 300 299 298 296 294 294 293 293 293 292 292
311 312 312 312 312 312 312 312 311 311 310 309 308 307 306 304 303 303 302 302 301 300 298 297 294 294 294 294 294 294 292 291
311 311 310 310 310 310 310 309 309 308 307 306 304 303 303 303 303 303 302 301 300 299 297 294 294 294 296 293 292 291 289 289
308 308 308 309 309 308 308 307 306 306 306 305 305 304 303 303 302 302 301 300 299 298 296 294 294 295 293 292 291 289 289 288
306 307 307 307 306 304 304 304 304 304 305 304 303 302 300 297 298 299 300 300 299 298 297 295 295 294 293 290 289 289 288 288
305 306 306 304 303 303 303 302 301 302 302 302 300 296 295 293 295 299 299 298 297 297 296 295 293 292 291 290 289 288 288 287
304 304 304 304 302 302 302 300 299 300 301 297 295 294 294 295 296 296 295 294 294 296 294 293 294 293 290 290 289 288 288 286
303 304 303 303 302 302 299 299 298 296 295 295 294 294 294 293 293 293 292 293 294 294 293 294 293 290 289 288 288 287 286 285
301 301 301 301 301 300 297 296 296 295 294 294 294 294 294 293 292 292 292 294 295 294 295 294 291 288 289 288 287 286 285 285
301 301 301 301 300 297 296 295 295 294 294 294 294 295 293 293 292 291 292 294 294 294 290 289 288 289 288 287 286 285 284 284
302 302 301 300 297 295 295 294 294 294 293 294 295 294 293 292 292 292 292 293 292 292 290 288 288 287 286 285 284 283 282 281
301 301 300 297 295 295 294 294 294 293 293 294 294 293 292 292 292 292 292 291 291 289 289 287 286 285 284 283 282 281 280 279
301 300 296 296 295 294 293 293 293 293 293 294 293 292 292 291 290 291 292 290 290 290 287 286 285 283 281 281 280 279 278 277

GFSFLT1_925_thetae_027.txt.gz
Theta_e
321 323 324 325 325 325 325 325 325 322 321 323 317 317 313 312 313 314 312 309 308 307 305 304 303 303 302 301 300 300 301 301
322 324 324 325 325 325 325 325 324 324 322 315 313 312 311 313 311 308 308 307 305 304 305 304 303 300 297 297 299 299 298 300
322 324 326 326 325 325 324 324 324 321 317 315 313 313 312 309 307 307 305 304 304 305 303 302 299 298 297 295 297 298 299 299
325 325 325 325 324 324 324 323 316 315 314 314 314 312 309 306 305 305 304 305 305 305 301 300 298 298 298 297 298 298 297 298
323 321 316 314 313 317 321 323 314 314 314 312 312 312 312 309 308 306 305 305 304 303 301 300 298 298 296 296 296 296 296 296
317 313 312 311 311 311 312 313 312 311 311 311 311 311 309 307 306 305 305 303 302 301 301 299 298 297 293 292 295 295 295 294
313 312 311 311 312 312 312 312 312 312 312 310 309 308 307 304 303 303 303 302 302 301 300 299 298 295 293 294 294 294 294 294
314 313 312 312 311 312 312 311 311 310 309 307 304 303 303 303 303 303 303 303 302 301 300 298 297 294 294 296 295 295 294 292
315 313 313 312 310 310 310 309 308 307 306 304 303 303 303 303 303 302 301 301 301 300 299 298 296 294 294 296 295 294 294 292
315 312 311 309 308 308 307 306 306 305 304 304 304 304 303 301 297 296 298 299 299 299 298 297 296 296 295 294 294 293 291 290
312 310 308 307 307 305 304 304 303 304 304 304 303 300 295 294 293 294 297 297 296 296 295 297 295 295 294 293 292 291 289 290
311 308 307 305 303 303 303 302 301 302 301 300 296 295 294 293 293 293 293 293 293 294 295 295 295 294 293 293 291 290 289 289
309 308 305 303 302 301 300 299 300 300 298 295 295 294 294 293 293 293 292 292 292 293 294 294 294 294 293 292 290 289 288 288
307 305 305 304 302 301 299 299 299 296 295 295 294 294 294 293 293 292 293 293 293 294 294 294 294 293 289 288 288 288 286 286
307 305 303 302 302 301 299 297 296 295 294 294 294 294 294 293 293 293 292 292 293 294 294 292 291 289 288 288 287 286 286 286
305 304 303 302 301 299 297 296 295 294 294 294 294 294 294 293 292 291 292 292 293 291 291 289 288 287 287 287 287 286 285 283
304 303 302 302 300 297 296 295 294 294 293 293 294 294 293 292 291 292 291 292 292 291 290 288 287 286 285 285 284 284 282 281
304 303 302 301 297 296 294 294 294 293 293 292 294 293 292 291 291 291 290 292 290 290 290 287 286 285 284 283 282 282 280 280
303 302 300 297 295 294 293 293 293 293 293 293 293 292 291 291 290 290 290 291 290 290 288 286 285 283 282 281 280 280 280 279

GFSFLT1_925_thetae_030.txt.gz
Theta_e
327 327 326 328 329 329 329 328 325 324 323 319 321 318 316 313 312 311 310 310 310 309 309 309 308 307 305 303 302 302 301 301
327 327 329 329 329 329 329 327 325 325 321 318 316 314 312 310 311 311 310 309 308 309 308 307 305 304 303 302 301 301 301 301
328 328 329 329 329 329 329 327 327 325 323 320 318 316 316 314 310 309 308 308 308 307 306 305 303 303 303 302 301 300 299 299
330 329 329 329 329 329 328 328 326 323 320 318 317 316 313 311 310 309 308 307 306 306 305 303 303 302 301 301 300 299 299 298
330 330 330 329 329 328 328 324 320 319 318 318 317 316 316 314 312 309 308 306 305 304 303 303 303 302 302 300 298 299 298 298
328 326 324 322 321 323 324 321 318 316 316 315 316 315 313 311 309 308 307 306 305 304 304 303 303 302 301 300 299 299 297 296
321 319 317 317 317 318 319 316 315 314 314 314 314 312 311 309 307 306 304 303 304 304 304 303 303 302 301 300 299 298 297 296
319 317 316 316 316 316 316 315 314 314 313 311 309 308 306 304 304 304 304 303 302 301 302 302 302 301 300 299 298 297 296 295
319 317 317 316 316 316 315 314 313 311 310 307 306 305 305 304 304 304 301 300 300 300 301 300 299 299 298 298 297 296 296 295
319 318 317 316 315 315 314 312 310 308 306 306 305 305 305 303 300 299 299 299 298 297 297 297 297 297 297 297 296 296 295 294
320 318 317 315 314 312 310 307 306 306 306 306 305 303 300 298 298 298 297 296 296 295 295 295 296 296 296 296 296 295 294 293
320 317 315 314 311 308 307 305 304 305 304 303 301 299 298 298 297 296 296 295 295 294 294 294 295 295 295 295 295 294 293 292
319 316 313 310 308 307 305 303 303 303 301 300 299 298 298 297 296 296 295 295 294 294 295 295 295 295 295 295 294 292 291 291
317 314 311 309 307 305 304 303 303 301 299 298 298 298 297 296 296 296 295 294 294 294 294 295 294 294 293 292 291 291 290 290
316 313 311 308 306 305 303 302 301 299 298 297 297 297 297 297 296 295 294 294 294 294 293 292 292 292 291 290 290 290 290 289
314 313 310 307 306 305 303 300 299 298 297 297 297 297 297 296 296 295 293 293 293 293 293 292 291 291 289 290 290 289 288 287
313 312 309 306 305 305 300 300 298 297 297 296 296 296 296 295 294 293 293 293 293 293 292 291 291 289 287 286 285 286 286 285
312 310 307 306 304 300 300 298 296 296 296 295 295 296 295 294 293 293 292 292 293 292 292 291 290 290 285 284 283 284 284 283
312 309 306 305 301 299 298 296 296 296 295 295 295 294 294 293 293 292 292 292 292 292 291 291 290 288 284 283 282 283 284 283

GFSFLT1_925_thetae_033.txt.gz
Theta_e
327 326 324 325 329 332 331 330 327 323 322 323 320 320 319 316 315 315 313 313 314 313 313 313 311 310 309 307 306 304 303 302
329 328 327 328 331 332 331 330 328 325 325 324 322 321 317 316 314 314 314 313 312 312 312 311 309 308 307 306 304 302 302 301
330 330 330 330 332 331 330 330 328 327 326 324 322 319 318 317 315 314 313 312 312 310 310 309 308 306 304 303 303 302 301 300
332 331 331 332 331 330 330 329 328 327 325 322 320 320 318 316 314 313 312 311 310 308 308 306 305 304 302 303 302 301 300 300
332 332 331 331 330 330 330 329 327 325 321 320 319 318 317 317 315 314 312 310 308 307 306 305 304 304 303 303 301 301 300 299
332 331 332 331 330 329 328 326 323 321 320 319 319 318 318 316 314 313 311 310 308 306 305 305 304 303 303 302 302 301 299 299
331 329 327 326 327 327 326 321 320 319 318 318 318 317 315 313 311 309 306 305 304 304 304 304 303 302 302 302 301 299 299 299
326 323 321 321 322 324 323 319 318 318 317 317 315 313 310 307 307 305 305 304 303 302 302 301 301 301 300 300 300 299 298 298
322 320 319 319 319 319 318 318 317 317 315 313 310 307 306 306 306 304 302 301 301 300 299 299 299 299 298 298 298 298 298 298
321 320 319 319 319 319 318 317 316 315 311 308 307 306 305 304 302 301 300 300 299 297 297 297 296 296 297 297 297 298 297 297
322 320 320 319 319 318 318 316 314 310 308 307 306 306 303 301 300 300 299 298 297 297 296 296 296 296 296 296 297 296 296 296
322 321 320 319 318 317 315 312 309 308 307 307 304 303 301 300 300 299 298 297 297 296 295 296 296 295 295 296 296 296 295 294
323 321 320 319 317 315 313 310 307 307 306 303 303 301 300 300 299 298 297 297 296 295 295 296 295 295 295 295 295 294 294 293
323 322 320 318 316 313 311 307 307 306 304 303 301 300 300 300 298 298 297 296 295 295 295 295 295 294 293 293 293 292 292 291
323 322 319 317 314 312 309 307 306 305 302 302 300 300 300 299 298 298 297 296 295 295 295 295 294 293 292 292 292 291 291 290
322 321 319 316 313 311 308 306 306 302 303 300 300 299 298 298 298 297 296 295 295 295 294 294 293 292 291 291 291 290 289 288
320 319 318 315 313 310 307 305 302 303 300 299 299 298 297 297 297 296 295 294 294 294 294 293 292 292 290 289 287 287 287 287
319 318 316 314 311 309 306 303 303 300 299 299 298 296 297 296 295 294 294 294 294 294 294 293 293 292 289 288 285 285 286 286
318 316 315 313 310 306 303 303 300 298 298 298 296 296 296 295 294 294 294 294 294 293 293 293 292 291 289 287 284 284 286 286

GFSFLT1_925_thetae_036.txt.gz
Theta_e
323 324 325 328 330 330 330 331 328 323 320 322 322 320 319 320 318 317 314 313 314 314 314 313 311 310 309 308 306 304 303 302
326 325 325 326 332 332 331 330 328 323 325 325 324 322 319 317 316 315 315 315 314 313 313 311 310 308 307 306 305 304 303 302
330 328 326 327 333 332 331 329 328 326 327 326 324 321 319 317 316 316 314 313 313 312 311 309 308 306 305 304 303 303 302 301
331 330 330 330 334 332 331 330 328 327 327 324 321 319 319 317 315 314 313 313 312 310 309 307 306 305 304 303 303 303 302 301
332 331 331 332 333 331 331 330 329 329 325 322 320 320 319 317 315 314 313 311 310 309 308 306 305 305 304 304 303 303 302 301
332 332 332 331 331 330 330 329 329 327 322 320 320 320 318 317 315 314 313 312 310 308 306 306 306 305 304 303 303 303 302 301
332 332 331 331 330 330 331 329 325 322 321 320 320 319 317 315 313 312 310 307 305 305 304 303 302 302 302 301 300 301 301 300
331 331 331 331 331 330 326 323 321 320 319 319 318 317 314 311 309 307 306 305 303 302 301 301 300 300 299 299 299 300 300 299
331 329 326 326 327 327 324 321 320 319 318 317 315 311 308 306 307 306 304 302 302 301 299 298 298 297 297 297 298 299 299 299
326 323 322 322 323 323 322 319 319 318 317 313 309 307 306 305 306 303 301 301 300 298 298 297 296 296 296 296 296 297 298 297
323 321 321 321 321 320 319 319 318 317 313 309 308 307 305 304 302 301 301 299 299 298 297 296 296 296 296 296 297 296 296 296
323 321 320 321 320 320 319 319 317 313 310 308 307 306 303 302 301 301 299 298 298 297 296 296 296 296 296 295 295 295 295 295
323 322 321 321 320 320 319 318 314 311 308 308 306 303 302 301 300 300 298 298 298 297 296 295 296 296 295 294 294 294 293 293
323 323 322 321 320 319 317 315 311 309 308 305 304 303 301 300 300 299 298 298 297 296 295 295 295 295 293 293 293 293 292 292
324 323 322 321 320 318 316 313 309 308 306 305 303 302 301 301 300 298 298 297 296 295 295 295 295 294 293 293 292 292 291 290
323 323 322 321 319 317 315 311 308 307 306 302 302 301 300 300 298 298 298 297 295 295 295 295 294 293 293 292 291 290 289 288
322 322 322 321 319 316 313 310 308 305 304 302 301 300 298 298 298 297 297 296 295 295 295 294 294 293 292 290 289 288 287 287
320 320 320 320 318 315 312 308 304 304 302 301 299 299 297 297 297 296 295 294 295 294 294 294 294 293 292 291 289 287 286 286
317 318 318 318 316 313 309 305 304 302 299 299 299 297 297 296 295 295 295 294 294 294 294 293 294 293 292 290 288 286 286 286

GFSFLT1_925_thetae_039.txt.gz
Theta_e
325 326 325 325 325 326 329 331 330 328 327 322 319 320 320 319 319 318 317 314 314 314 313 312 311 309 309 307 306 304 303 302
324 326 326 326 326 328 330 330 327 324 320 322 322 320 319 317 316 314 315 314 314 314 312 311 310 308 306 304 304 303 303 301
324 324 327 328 328 331 331 330 326 321 321 324 323 320 317 317 315 315 315 313 313 313 311 309 307 306 304 303 303 303 303 301
326 327 330 330 329 331 330 330 328 324 325 326 324 320 318 316 316 315 314 313 312 311 309 308 307 305 304 304 303 303 302 302
327 327 330 331 331 331 330 330 328 326 327 325 321 319 318 316 316 314 313 312 310 309 308 307 306 305 305 304 304 303 303 302
328 328 330 333 332 331 330 330 328 326 327 323 319 319 318 316 315 314 312 312 310 309 308 306 305 303 302 302 301 300 301 301
328 329 331 332 332 331 330 329 328 328 328 321 320 320 315 315 314 313 312 311 309 305 303 302 302 301 300 299 299 299 299 300
329 329 330 330 330 330 329 329 328 328 321 321 320 318 316 314 313 308 306 304 302 301 301 300 299 298 298 297 296 296 297 298
328 329 329 330 329 328 329 330 324 321 320 319 318 314 311 308 306 306 305 303 302 302 299 298 298 297 296 296 296 296 296 298
326 324 327 330 330 328 325 321 320 319 319 318 315 310 307 306 306 306 304 301 300 299 298 297 297 296 296 296 296 297 296 296
321 320 323 325 325 325 323 320 319 318 318 315 309 306 306 305 304 302 301 300 299 298 298 297 296 295 296 296 296 295 295 295
318 317 321 323 323 323 322 319 318 318 314 309 307 306 306 303 302 301 300 300 298 298 297 296 295 295 296 295 294 293 294 293
317 316 319 319 320 320 320 319 318 315 310 308 307 306 303 302 301 300 300 299 298 298 296 295 295 296 295 294 293 293 293 292
318 316 317 318 319 320 319 318 314 311 309 307 306 304 302 302 301 301 299 298 298 297 296 295 295 295 294 293 293 292 292 292
319 318 318 319 319 318 319 318 313 310 308 306 304 303 302 302 301 300 299 298 297 296 296 295 295 295 294 293 292 292 291 290
319 318 317 319 319 317 317 317 311 308 305 304 303 302 300 300 301 299 298 298 297 296 295 295 294 294 294 293 292 292 290 289
318 319 319 318 318 317 316 312 308 306 304 302 301 302 302 298 298 297 297 297 296 295 295 294 294 294 293 293 291 290 289 288
314 317 318 319 318 317 311 308 306 304 303 302 301 299 298 298 297 296 295 295 295 294 294 294 294 294 293 293 292 290 288 287
311 312 316 316 315 312 306 304 304 301 299 299 299 298 296 295 294 294 294 295 294 295 294 294 293 293 293 293 291 290 287 286

GFSFLT1_925_thetae_042.txt.gz
Theta_e
331 328 328 327 328 325 325 328 329 328 327 326 323 319 319 319 321 322 321 319 316 315 313 312 310 309 308 306 304 303 303 302
328 325 325 326 324 324 326 329 328 327 326 323 320 319 319 319 319 320 317 314 314 313 312 310 309 308 306 304 303 303 302 301
324 323 324 324 325 325 327 329 328 327 326 323 320 320 319 318 316 314 314 314 314 313 311 310 308 307 305 304 303 303 302 301
320 323 324 325 327 327 328 329 329 328 324 321 322 322 318 316 314 314 314 313 313 312 311 309 308 306 305 304 303 303 302 302
322 325 324 326 328 328 328 329 328 325 321 321 323 321 316 316 315 315 313 313 312 312 309 307 306 305 304 304 303 302 301 302
324 326 326 327 328 328 328 329 328 327 323 324 324 320 318 316 315 314 313 312 311 309 308 306 305 304 302 301 300 299 299 300
324 326 329 328 328 329 329 329 329 327 324 326 324 321 318 316 315 313 312 311 310 308 306 305 303 301 299 298 297 297 296 296
324 327 329 329 329 329 329 329 328 328 325 326 324 320 318 317 315 313 312 309 305 302 301 300 299 298 297 296 296 296 296 296
327 328 329 330 330 329 329 329 328 328 327 328 322 319 318 316 315 313 309 303 301 300 299 298 297 296 296 295 295 296 296 296
328 327 328 328 328 329 329 329 328 327 322 319 318 315 314 313 307 304 302 301 300 299 297 298 298 296 295 295 296 296 295 294
324 324 326 328 329 328 328 328 328 322 318 315 313 310 307 306 305 303 303 301 300 299 299 298 297 295 295 296 295 294 294 293
323 322 326 328 328 327 325 325 322 318 317 316 311 306 305 305 303 301 300 300 300 300 299 297 296 295 295 295 294 294 293 293
320 321 322 323 325 322 320 320 320 318 317 311 307 306 306 303 302 301 301 301 300 299 298 296 295 295 295 295 294 293 293 292
318 317 319 321 320 322 321 318 318 316 310 307 306 305 303 302 301 301 301 300 298 297 296 296 296 295 295 295 294 293 292 292
317 316 318 319 319 319 317 316 315 312 308 307 306 304 302 301 301 301 300 299 297 297 297 296 295 295 295 294 293 292 292 292
318 316 313 316 317 318 317 315 313 309 307 306 304 302 301 300 300 300 299 297 297 296 295 294 294 295 294 294 294 293 292 291
319 316 315 316 317 317 315 311 309 306 304 303 301 301 301 300 298 297 297 297 295 294 294 294 294 294 294 294 293 292 291 290
314 317 316 317 317 316 313 308 304 304 302 301 300 298 298 297 297 296 295 295 295 294 294 294 294 294 294 293 293 291 290 290
308 308 308 311 311 309 306 304 302 300 299 298 297 296 295 295 295 295 295 295 294 294 294 294 294 294 293 292 293 291 290 289

GFSFLT1_925_thetae_045.txt.gz
Theta_e
331 329 328 324 326 328 329 329 324 323 325 327 329 328 326 322 320 320 322 320 317 315 314 313 312 310 309 306 305 303 302 302
330 330 329 328 328 325 328 328 325 325 328 327 325 323 320 319 320 321 320 318 316 314 313 311 310 309 307 306 303 302 302 301
329 329 328 328 327 325 326 326 327 328 329 327 324 321 319 319 319 320 318 315 314 313 312 310 309 308 307 304 303 303 302 301
329 325 325 325 325 325 325 326 328 328 327 325 321 319 319 318 317 316 313 314 314 313 312 310 309 307 305 304 303 303 302 302
328 324 323 323 324 325 325 326 328 327 327 323 321 320 318 317 316 314 314 313 312 312 311 309 307 305 304 304 303 301 300 300
324 323 323 323 324 324 324 325 326 326 326 323 321 321 321 321 317 314 314 312 312 310 309 307 305 304 303 300 299 298 298 298
321 322 323 323 324 325 325 325 326 326 326 323 321 322 322 318 315 314 313 312 310 308 307 305 303 300 298 297 296 296 295 295
321 323 323 324 326 326 326 326 326 327 326 324 322 324 322 319 316 315 312 310 307 305 302 300 299 299 298 296 295 295 295 296
322 324 325 325 326 326 326 326 326 327 327 326 324 325 323 320 316 315 312 308 304 300 300 302 302 297 296 296 295 295 296 296
324 325 327 327 326 326 327 327 327 328 328 328 324 323 321 317 315 313 310 303 300 300 302 298 298 298 299 296 295 296 295 294
324 325 327 328 328 327 327 327 328 327 328 326 325 323 317 315 313 311 303 301 303 304 299 301 300 298 296 295 295 295 294 293
324 325 326 327 328 328 328 328 327 326 324 321 319 315 313 313 311 306 304 305 302 300 302 301 298 295 295 295 295 294 293 293
323 323 324 325 327 327 328 328 326 325 319 316 313 312 311 307 305 305 304 300 300 302 300 298 296 295 295 295 294 294 294 293
319 320 321 324 324 323 323 323 322 319 314 310 309 308 305 305 303 301 299 301 301 299 297 296 296 295 295 295 294 294 293 292
317 317 319 322 322 320 318 316 317 314 309 309 306 304 303 302 301 300 301 300 299 297 296 296 295 294 294 294 294 294 293 292
317 315 313 317 318 318 316 315 313 310 307 305 304 303 302 301 300 300 299 297 296 295 295 295 294 294 294 294 294 294 293 292
317 316 313 314 316 316 313 312 309 308 306 304 303 302 300 300 298 296 295 295 297 298 297 295 295 294 294 294 294 294 293 292
309 312 313 314 314 313 309 308 307 305 304 302 300 298 296 296 296 297 299 299 298 297 296 294 294 294 294 294 293 293 293 292
302 302 303 306 308 307 304 303 302 301 298 297 295 295 295 298 299 299 298 297 296 294 293 293 293 293 293 293 293 292 292 290

GFSFLT1_925_thetae_048.txt.gz
Theta_e
327 327 325 324 323 324 326 327 329 325 321 320 321 323 328 328 327 326 325 323 319 316 315 314 313 311 309 307 306 303 302 301
330 329 327 325 323 324 326 327 328 325 320 322 325 328 328 325 322 321 321 320 318 316 315 314 312 310 308 306 304 302 302 301
330 330 328 327 325 324 326 327 328 326 321 323 326 327 325 321 320 320 320 320 317 315 314 312 309 308 307 305 303 302 302 301
329 328 328 328 326 325 327 328 328 327 323 324 325 324 321 319 319 319 319 317 315 313 312 310 309 307 305 303 303 303 302 301
329 328 327 327 327 326 327 327 327 327 324 324 325 324 319 318 318 318 317 314 313 312 311 309 307 305 304 303 303 301 300 299
328 328 327 326 325 326 327 326 325 324 325 326 325 322 319 319 318 316 314 313 313 312 309 306 305 304 303 301 298 297 296 296
325 328 325 325 324 325 325 325 325 325 324 324 325 323 320 319 317 314 313 313 310 309 307 306 304 302 299 298 300 297 295 295
322 321 321 322 323 323 324 325 324 324 324 325 325 324 321 320 317 314 313 312 309 307 305 303 300 299 303 301 296 296 295 295
319 320 321 321 322 323 324 324 324 323 324 324 324 323 321 321 319 316 314 311 308 304 303 299 300 303 298 300 300 299 295 295
319 319 321 322 323 324 324 325 324 324 324 324 324 323 321 322 318 315 313 309 305 305 304 302 303 300 303 301 297 295 295 295
318 319 323 323 324 324 324 325 325 325 325 325 325 325 323 321 318 314 312 310 308 303 302 303 300 302 300 296 295 295 295 294
320 321 325 325 325 325 325 325 325 326 326 326 326 325 322 318 317 315 312 307 302 302 302 300 302 298 297 295 295 295 294 294
320 321 323 325 326 326 325 325 325 326 326 326 322 319 315 313 312 309 307 304 302 303 301 302 299 297 295 295 295 295 294 293
320 319 320 322 324 324 325 326 326 326 324 321 315 313 311 308 306 305 302 302 302 300 300 299 298 295 295 296 295 294 294 294
318 318 318 321 322 323 322 322 322 320 316 311 309 307 306 305 304 302 302 300 300 299 299 296 295 296 296 294 294 294 294 294
318 317 315 317 318 319 317 316 315 312 310 308 306 305 304 302 301 299 300 300 298 295 295 296 297 296 295 294 294 294 294 293
311 312 313 314 316 315 313 313 311 309 306 305 303 302 301 300 299 296 295 296 297 296 297 298 297 296 294 294 293 293 293 293
305 304 305 308 311 311 307 306 305 304 302 300 299 298 296 295 296 298 299 299 299 299 298 297 295 293 293 293 293 293 293 293
298 299 300 301 302 303 303 302 301 299 297 296 296 297 298 299 300 300 298 297 297 296 295 294 293 293 293 292 292 292 292 292

GFSFLT1_925_thetae_051.txt.gz
Theta_e
325 325 324 322 322 323 325 327 327 326 324 322 318 319 319 322 325 325 326 325 324 322 318 315 312 311 310 308 306 303 302 302
325 324 324 323 323 324 325 327 327 328 325 322 320 321 321 324 326 324 323 323 321 319 316 314 312 311 310 307 305 303 303 302
328 326 325 324 323 324 324 326 327 327 326 321 321 320 321 325 325 324 322 320 320 317 315 314 312 310 307 305 304 303 302 301
331 329 327 326 324 324 324 325 326 327 325 321 320 322 324 324 322 320 319 318 318 317 314 313 311 308 306 304 303 303 304 301
332 331 330 329 327 325 324 325 325 326 326 322 321 323 323 322 320 319 319 317 317 315 313 311 309 307 306 304 303 303 301 301
332 331 331 330 328 326 325 324 325 326 326 324 322 323 323 321 321 319 317 316 314 313 311 310 307 306 305 304 302 299 300 298
330 330 330 329 328 327 326 325 325 325 325 324 324 322 322 321 319 317 315 315 313 312 310 308 307 306 304 300 299 301 296 295
328 329 329 328 326 325 325 325 325 325 324 324 324 324 321 322 319 318 315 312 311 311 310 307 306 304 301 300 300 300 299 297
326 327 328 328 326 325 325 325 326 325 324 324 324 324 321 320 320 320 316 313 312 310 308 307 306 304 300 301 303 299 297 295
324 324 325 326 325 325 325 325 325 324 324 324 324 323 322 320 320 320 318 313 311 310 308 304 302 301 300 303 300 296 294 295
319 321 322 323 324 324 325 325 325 325 324 324 323 321 321 320 321 320 317 312 310 308 301 301 301 299 303 299 296 295 295 295
321 321 322 323 323 324 324 325 325 325 325 324 323 323 322 321 320 317 314 311 306 301 301 302 301 302 299 296 296 297 295 295
322 323 324 324 324 324 325 325 325 325 324 325 324 323 321 317 315 314 310 307 304 302 302 301 302 299 296 297 299 296 296 295
324 324 324 325 325 325 325 324 325 324 323 322 320 317 313 311 310 310 309 305 303 302 301 301 298 297 298 297 296 296 296 295
323 323 324 324 324 324 324 322 321 321 319 315 311 308 308 308 307 306 304 303 301 301 300 299 300 297 296 296 296 295 294 294
319 320 321 321 322 320 317 317 317 317 314 310 308 306 305 303 302 301 300 300 299 299 298 297 296 295 297 297 296 295 294 294
314 314 315 317 316 314 311 309 308 308 307 304 303 303 301 300 299 298 297 296 296 296 297 296 296 298 298 296 294 294 294 293
309 308 308 308 308 307 306 304 304 302 301 299 298 298 297 296 297 297 298 298 297 297 297 298 297 297 295 293 292 292 293 293
303 303 302 302 302 302 301 300 299 299 298 297 297 298 299 299 300 300 299 298 298 297 296 296 295 293 292 292 292 291 292 292

GFSFLT1_925_thetae_054.txt.gz
Theta_e
328 327 325 324 323 321 320 322 323 325 326 326 323 321 322 324 326 325 325 326 326 324 322 320 314 312 310 311 311 310 309 307
327 327 325 324 323 324 324 324 325 327 326 325 323 321 322 324 326 327 325 325 324 324 322 318 314 312 312 310 311 310 308 307
327 327 325 324 323 324 324 325 326 327 326 325 323 321 322 324 325 323 323 322 321 321 320 317 315 314 310 309 310 310 309 307
331 327 327 326 324 325 326 327 328 329 327 326 323 323 324 324 324 324 324 321 319 318 318 317 316 312 309 310 311 310 310 307
332 331 328 326 325 324 325 325 327 329 329 326 323 322 322 323 324 323 321 320 318 318 317 316 314 311 311 311 310 309 309 307
332 333 331 330 327 326 326 326 326 328 329 329 326 323 322 325 326 324 321 319 319 316 315 314 312 313 312 310 309 308 305 304
330 331 332 333 332 331 330 328 327 328 328 329 329 327 326 327 325 324 323 321 318 315 312 312 311 311 311 310 308 304 303 301
332 331 332 332 333 333 332 331 329 328 329 329 329 329 328 327 326 324 323 320 315 313 312 312 312 311 308 307 304 303 301 298
331 331 331 332 332 333 332 331 331 330 329 329 329 328 328 327 325 323 323 318 316 313 312 311 309 307 305 303 303 300 300 299
328 330 330 332 332 332 332 332 331 331 329 330 329 327 326 326 324 323 320 317 315 312 310 309 307 303 303 301 301 301 297 297
324 326 328 330 331 331 332 331 331 331 330 329 328 327 326 325 323 322 318 319 316 312 311 309 303 302 301 301 300 296 295 295
325 325 324 326 328 329 330 330 330 330 330 329 328 328 327 324 321 320 319 318 315 311 310 304 302 301 300 301 296 295 295 300
327 327 326 326 327 327 328 328 329 329 329 329 328 325 322 320 319 316 315 314 311 306 304 303 301 300 302 298 296 296 299 299
328 328 328 328 328 328 328 328 328 328 328 326 320 317 316 314 313 313 312 309 306 303 303 302 300 301 297 297 298 300 299 299
329 329 329 329 329 329 329 327 324 321 319 317 313 312 312 310 309 308 305 304 303 302 301 301 300 297 299 299 298 298 299 298
327 329 330 329 328 326 325 322 318 315 312 311 309 308 306 305 306 305 303 301 301 301 300 299 299 300 298 297 297 298 299 297
322 324 325 324 323 320 318 317 316 312 308 306 304 304 302 302 302 301 299 299 299 299 298 299 298 297 296 297 297 297 296 296
318 319 319 318 316 315 313 312 311 309 305 303 302 301 300 300 299 300 299 299 299 299 298 297 297 296 297 297 294 293 294 294
314 314 313 312 311 310 309 308 306 304 302 301 300 300 301 301 300 300 299 299 299 299 298 298 298 297 295 293 291 292 293 293

GFSFLT1_925_thetae_060.txt.gz
Theta_e
326 324 322 319 318 317 318 317 315 315 315 315 317 320 321 320 319 322 325 325 322 323 323 322 321 320 320 318 316 316 316 315
326 325 323 322 320 319 319 319 320 318 316 319 320 323 323 321 321 320 323 324 326 326 324 324 323 322 320 317 316 316 315 313
327 325 324 321 320 320 320 321 320 321 321 321 323 322 322 322 320 321 324 327 326 326 326 326 325 322 319 317 315 315 314 312
329 326 325 322 321 321 322 322 321 322 324 323 323 321 321 320 323 322 325 325 326 327 327 326 325 324 321 317 316 314 313 313
329 328 326 326 324 323 323 322 323 323 322 323 322 323 323 322 323 324 326 325 326 326 325 324 323 323 321 319 317 314 314 313
331 329 327 327 327 325 323 323 323 324 324 325 325 324 322 321 321 324 326 327 326 324 323 322 321 322 321 320 317 315 313 314
331 329 329 328 327 327 326 326 326 326 325 325 328 328 326 324 324 324 326 326 325 323 322 322 322 322 321 318 316 314 312 313
331 331 330 329 328 327 328 327 328 328 328 330 329 327 329 325 325 326 326 326 325 324 322 321 321 320 320 318 313 312 311 307
329 331 330 329 330 329 328 328 328 328 329 329 329 330 328 329 327 327 326 327 326 324 323 322 320 319 318 316 313 312 312 308
331 328 331 331 330 331 331 330 329 329 329 329 329 328 325 330 329 329 329 327 327 324 323 321 319 316 314 313 312 312 310 305
327 330 330 332 332 332 332 331 331 331 331 331 330 330 329 329 330 331 329 327 325 323 321 320 317 314 311 311 311 307 304 302
326 328 330 331 333 334 335 335 334 335 334 333 331 331 332 331 329 328 327 325 323 322 320 316 314 311 310 309 305 303 302 301
327 327 327 331 332 333 336 337 336 336 335 334 332 332 331 329 328 327 325 323 321 319 315 312 310 309 306 305 302 302 301 301
328 328 328 328 330 333 336 336 336 335 333 331 330 327 328 327 325 323 321 319 315 311 309 308 307 306 304 302 302 301 301 300
328 330 330 329 329 330 332 332 329 327 325 324 319 320 321 319 317 315 313 311 309 307 306 305 304 303 302 302 301 299 300 300
325 328 330 331 331 330 327 324 321 320 317 314 314 316 314 312 310 308 306 306 304 304 303 302 301 301 301 299 298 299 299 298
325 326 329 330 331 327 322 318 316 315 313 311 312 311 309 307 306 304 304 302 302 301 301 301 300 299 299 299 298 298 297 298
324 327 330 331 328 322 319 316 313 312 311 310 311 311 309 307 306 304 304 303 301 300 299 299 300 299 299 298 297 297 296 294
325 330 329 326 325 320 317 315 313 312 312 310 309 308 306 306 304 303 303 302 301 301 301 300 300 300 299 296 293 292 292 292

GFSFLT1_925_thetae_063.txt.gz
Theta_e
320 318 317 316 317 317 317 318 317 316 316 315 314 312 313 314 317 321 320 319 322 323 322 323 322 320 319 319 317 317 316 316
322 318 317 316 315 317 316 316 316 316 316 314 314 315 316 315 318 319 321 322 322 323 322 323 322 322 320 319 319 317 316 316
323 320 318 317 316 317 317 316 315 315 315 314 314 316 318 316 317 320 321 324 324 324 322 323 323 323 321 320 319 317 316 316
324 322 320 318 318 318 318 316 315 315 314 314 317 318 321 322 322 321 321 321 323 324 324 322 323 324 322 321 320 316 316 315
324 323 320 319 318 318 318 319 318 316 317 317 319 321 321 321 319 320 320 323 324 326 325 324 323 324 324 323 319 317 316 314
324 322 320 319 319 319 319 319 320 318 320 322 322 322 321 321 320 321 322 323 324 325 325 326 325 325 324 322 319 317 316 315
325 324 322 320 319 320 321 321 320 319 320 322 323 322 322 321 321 320 321 322 324 325 325 325 325 323 322 322 320 319 316 316
327 325 324 324 321 321 321 321 321 320 322 322 322 325 323 323 322 322 324 325 326 326 326 324 323 322 322 322 320 317 316 313
328 327 325 325 325 324 323 322 322 322 322 323 324 324 327 326 324 322 323 324 325 325 325 324 322 321 321 320 318 316 313 312
328 327 327 326 326 326 325 323 323 324 325 326 327 325 326 328 327 325 326 326 325 326 325 323 322 321 320 318 316 313 312 311
329 328 327 327 327 326 326 326 326 326 326 327 327 330 329 328 328 328 326 327 326 326 324 323 322 319 317 315 313 312 311 307
322 326 328 328 328 328 327 326 327 327 327 327 328 328 328 328 326 327 325 321 325 326 325 322 319 317 314 313 312 310 306 305
322 321 326 329 328 328 329 328 328 328 328 328 329 328 329 329 327 326 325 324 323 322 321 319 316 314 312 311 309 305 304 303
322 323 322 325 329 330 330 330 331 331 330 331 331 331 328 326 326 323 322 322 320 317 317 315 312 310 308 307 306 303 302 301
323 323 323 325 329 330 333 333 325 328 325 326 325 324 324 323 320 319 319 317 316 314 312 310 308 307 305 303 302 301 300 300
325 324 324 327 324 321 321 321 322 320 318 319 318 317 317 316 316 315 314 313 310 309 307 306 305 304 303 302 301 300 300 300
323 326 328 328 323 319 317 317 317 319 319 316 315 315 313 312 312 309 309 307 306 305 304 303 302 301 301 300 299 300 299 297
320 326 330 327 322 318 315 314 314 315 314 312 310 309 309 308 307 306 304 303 302 302 301 301 300 300 300 299 298 297 296 294
327 327 327 323 320 318 316 314 313 312 311 311 309 308 306 305 304 303 302 301 301 300 299 300 299 299 298 297 297 293 292 292

GFSFLT1_925_thetae_066.txt.gz
Theta_e
318 318 318 318 318 318 317 316 317 318 318 316 319 317 318 317 315 315 318 319 321 322 322 322 322 321 319 318 318 316 316 315
318 317 317 317 318 317 317 316 315 316 317 318 316 315 314 314 317 319 321 320 321 323 321 321 321 321 320 319 318 317 317 316
319 317 316 316 317 317 316 316 315 315 316 315 315 314 313 314 315 318 319 320 320 321 322 322 322 322 321 320 319 318 317 316
320 317 316 315 315 316 316 317 316 315 315 315 314 313 313 313 313 313 315 320 321 322 322 322 321 323 322 321 320 319 318 316
321 318 316 315 315 316 316 316 316 316 316 315 314 314 315 315 315 315 315 319 322 322 322 323 322 322 323 323 322 320 319 316
322 320 318 316 315 316 317 316 315 315 316 315 314 315 316 318 319 317 316 318 321 322 323 323 323 324 323 323 323 320 320 316
324 321 320 318 317 317 317 316 315 315 315 314 314 316 319 320 320 320 321 320 319 320 323 324 325 325 324 324 324 322 320 317
324 322 319 318 317 317 317 317 317 316 315 316 316 318 319 320 321 320 319 319 321 322 325 325 325 325 325 324 322 321 319 317
323 322 320 319 317 317 317 317 317 317 317 317 318 319 321 321 321 320 320 320 320 320 321 323 324 325 323 322 321 321 320 317
326 322 321 320 318 317 318 318 318 318 317 318 319 320 321 322 322 321 321 321 322 321 323 324 324 323 322 321 320 320 317 315
327 325 323 322 320 319 318 319 319 318 318 318 319 320 321 323 325 324 322 322 323 324 324 324 324 323 321 320 319 317 314 313
325 327 326 324 323 323 321 320 321 320 320 320 320 322 323 324 325 325 325 325 324 322 323 324 324 322 320 318 316 315 312 310
325 326 327 326 325 325 324 323 322 322 322 322 324 325 326 327 326 326 323 321 323 322 323 323 323 320 318 316 313 311 309 305
317 319 325 327 326 326 326 325 325 325 326 326 326 326 327 327 327 326 322 318 320 321 321 319 318 317 316 312 311 309 306 304
319 319 321 324 326 326 326 326 326 327 327 326 328 327 325 322 323 324 323 321 320 319 318 317 316 314 311 309 307 305 303 301
321 320 325 323 324 327 328 328 328 327 323 322 324 321 325 319 320 323 321 320 320 317 315 311 310 309 307 305 304 302 301 300
321 322 325 322 321 322 323 326 325 323 321 318 317 318 315 316 316 316 317 314 311 310 308 308 306 305 304 303 301 300 300 299
321 325 326 322 320 318 318 320 320 318 316 314 313 311 311 312 313 311 309 308 307 306 305 304 303 302 301 299 299 299 297 295
319 324 326 321 318 316 315 315 315 314 312 311 310 309 307 306 305 305 305 305 304 303 302 302 301 299 299 299 298 296 293 292

GFSFLT1_925_thetae_069.txt.gz
Theta_e
318 319 319 318 319 318 319 319 319 319 318 317 321 321 321 319 317 316 315 315 314 315 316 318 318 318 318 318 317 317 316 313
318 318 317 317 318 318 318 318 318 318 318 320 319 319 320 322 322 321 321 319 319 319 321 322 321 320 319 319 317 317 316 314
317 316 317 317 318 317 317 316 317 317 318 319 318 318 317 317 318 320 320 320 320 321 321 322 321 321 320 319 318 317 316 316
319 316 315 315 317 317 317 316 316 316 316 316 317 316 316 316 315 316 319 320 320 320 322 322 321 321 321 320 319 318 318 317
319 317 315 314 316 316 316 316 315 316 316 316 316 316 314 314 314 314 317 318 318 319 320 321 322 321 321 322 321 320 318 317
321 318 316 315 315 316 317 316 315 314 315 315 316 315 314 313 313 314 314 315 315 316 321 322 322 322 322 322 322 322 320 318
322 320 316 315 315 315 316 316 316 315 315 314 314 315 314 314 314 314 314 314 314 315 317 320 322 323 323 323 322 322 322 319
323 320 317 316 314 314 315 316 315 315 315 315 315 315 315 315 315 316 316 315 314 315 316 317 320 322 323 324 324 324 323 320
324 322 320 318 316 315 315 316 315 315 315 315 315 315 314 315 316 316 317 318 315 315 318 318 319 320 322 323 324 323 322 321
324 323 321 319 317 316 316 316 316 315 315 315 314 315 314 315 317 318 319 320 320 319 319 319 320 322 323 322 323 322 321 321
324 323 322 320 319 317 316 316 316 316 316 315 315 315 316 317 318 320 321 321 321 321 320 321 322 322 323 323 321 320 319 318
325 324 322 321 320 317 316 316 316 316 316 316 316 316 316 318 318 320 321 322 323 321 321 321 322 323 322 322 321 318 318 316
323 325 324 321 320 319 317 317 317 317 316 316 317 317 317 318 319 321 323 324 323 320 323 320 322 322 321 322 319 317 315 314
322 322 324 324 322 321 319 318 318 319 319 318 317 317 318 319 322 323 324 324 322 318 317 318 321 321 321 318 317 315 314 311
317 319 323 325 324 323 322 321 320 320 320 320 320 320 321 322 323 324 325 325 320 318 319 319 318 319 317 316 314 312 309 307
317 317 317 321 324 325 324 324 322 321 322 322 322 322 323 324 326 325 324 325 323 321 318 316 316 314 314 312 310 308 305 303
317 318 323 322 322 323 324 324 324 324 324 324 324 325 325 324 325 322 320 319 320 318 316 314 312 311 311 309 308 305 302 300
315 320 325 323 322 324 324 324 324 324 323 320 319 321 322 323 322 319 315 316 313 313 311 310 309 308 306 305 304 302 300 299
313 319 323 323 322 321 323 322 321 319 317 316 315 316 315 313 312 311 309 310 310 308 307 307 306 304 302 301 300 299 298 295

GFSFLT1_925_thetae_072.txt.gz
Theta_e
318 319 319 318 318 320 320 320 320 320 320 321 322 323 323 323 317 316 315 313 313 313 314 314 315 316 317 317 315 314 314 313
318 318 318 318 318 319 319 319 320 320 320 320 321 322 321 321 321 317 315 314 315 314 314 315 315 317 318 317 316 315 316 314
316 317 316 318 317 318 318 319 319 319 319 318 319 321 320 318 318 316 315 314 314 314 315 318 318 319 319 317 317 317 316 315
317 315 315 316 317 318 318 318 318 319 318 318 319 320 319 321 320 319 318 317 316 316 319 320 321 322 321 320 318 317 317 316
317 316 314 315 317 317 317 317 317 317 318 318 316 316 317 317 320 318 317 320 319 319 319 320 321 321 321 320 319 319 318 317
318 316 315 314 316 316 316 316 317 316 316 319 318 317 316 316 315 316 317 317 317 317 318 319 320 320 322 322 321 320 319 318
319 317 315 314 314 316 316 316 316 316 316 316 318 317 317 315 314 314 314 314 315 316 317 316 317 320 321 322 322 322 321 321
320 317 315 314 313 314 315 316 316 315 315 315 316 316 316 316 316 314 314 313 313 314 315 315 314 315 319 321 322 323 323 322
321 319 316 315 313 314 315 315 315 316 315 315 315 315 315 315 315 315 314 314 314 314 313 314 314 316 319 319 320 321 322 322
322 320 318 316 315 314 314 315 315 315 315 314 314 314 314 314 315 314 315 315 315 315 314 315 316 319 320 320 321 321 320 321
321 321 320 318 316 315 314 314 315 315 315 315 315 314 314 314 314 315 315 315 316 316 317 319 321 321 321 321 321 322 320 320
322 321 321 320 318 316 315 314 315 315 315 315 314 315 315 315 315 315 315 316 317 318 320 322 322 322 322 320 320 321 320 320
321 321 320 320 319 317 316 316 316 315 315 315 315 315 315 316 316 316 315 315 317 318 320 321 322 321 320 320 321 320 320 318
319 321 321 320 319 318 317 316 316 316 315 315 315 315 315 315 315 316 317 317 318 319 321 322 321 321 318 319 321 320 319 316
317 318 320 322 320 319 318 317 317 316 316 316 316 316 316 316 316 317 318 318 319 320 322 322 321 321 318 319 320 317 314 311
313 318 319 321 322 320 319 318 317 317 317 317 316 316 316 316 316 318 320 320 320 320 322 321 319 317 318 317 316 312 310 308
311 314 315 319 321 322 321 320 318 318 318 318 318 318 318 318 319 320 322 322 322 321 322 321 318 317 316 314 313 309 308 305
312 314 316 316 318 322 322 322 321 319 318 319 319 319 320 320 321 322 321 320 320 320 319 319 316 313 311 309 308 306 304 301
311 313 315 319 321 321 322 322 322 321 320 320 320 321 321 321 320 319 317 316 316 316 315 311 308 307 305 304 305 303 301 299

GFSFLT1_925_thetae_075.txt.gz
Theta_e
322 321 320 318 319 320 321 321 321 320 320 320 322 323 323 322 317 312 309 310 312 313 315 316 316 316 313 309 308 308 308 307
321 320 319 318 318 319 320 320 320 320 320 321 322 322 322 321 317 314 316 315 313 316 317 316 316 316 316 313 312 312 311 309
321 319 319 318 318 318 319 320 320 320 320 321 320 321 321 321 318 316 314 315 315 316 315 314 315 315 316 315 315 314 315 313
320 319 317 318 317 317 318 319 319 319 319 319 319 320 320 320 318 317 315 313 315 315 314 314 314 315 316 317 317 317 317 316
321 318 316 317 318 318 319 318 319 319 319 318 319 318 318 319 317 317 316 314 314 314 314 314 316 319 319 320 320 319 317 317
323 319 317 316 317 318 318 318 318 318 319 319 319 319 318 319 318 318 315 315 315 315 315 316 318 317 319 320 321 320 318 317
323 321 318 317 316 318 317 318 318 317 318 318 318 318 319 317 316 316 316 317 316 317 317 316 319 319 319 320 320 321 320 319
323 322 319 317 316 316 315 317 317 317 316 317 317 317 317 316 317 317 316 316 317 318 318 317 317 317 317 318 319 320 320 320
324 322 320 318 316 316 314 316 317 317 316 316 317 317 316 316 315 315 315 315 316 316 315 315 315 315 315 315 316 319 320 320
324 323 321 319 317 316 316 316 317 317 317 316 315 316 317 316 316 316 315 314 314 314 314 314 314 314 314 315 317 319 320 320
324 323 321 320 319 317 316 317 317 317 317 316 316 315 315 315 315 315 315 316 316 315 315 315 315 315 315 317 319 320 321 321
325 324 322 320 319 318 317 317 317 317 317 316 316 315 315 314 314 314 315 316 316 315 315 316 315 316 317 320 321 320 320 321
323 325 323 321 320 318 317 317 317 317 317 316 316 316 315 314 314 314 314 315 315 315 317 315 316 318 320 316 321 320 320 320
323 324 324 323 321 320 318 317 317 317 317 316 316 316 316 315 315 315 315 316 316 317 317 316 317 319 320 320 320 318 318 320
319 324 325 324 322 321 320 318 317 317 317 316 316 316 316 316 316 316 316 316 316 317 316 316 318 319 319 320 320 317 317 317
316 319 322 324 323 322 320 320 319 318 317 317 316 316 316 316 316 316 316 316 317 317 317 317 317 319 320 320 319 317 316 316
317 316 318 321 323 322 321 319 318 318 318 318 317 317 316 316 316 316 316 316 317 318 318 318 319 317 319 321 318 317 316 311
317 317 316 319 321 322 321 320 319 318 318 318 318 317 317 316 316 316 317 318 319 319 319 319 318 317 319 319 317 316 309 305
317 317 317 317 318 321 323 321 319 318 319 319 318 318 318 318 318 318 319 320 320 319 319 318 318 317 317 315 310 307 305 302

GFSFLT1_925_thetae_078.txt.gz
Theta_e
329 328 326 324 322 323 325 322 322 321 321 322 322 320 318 319 316 312 309 311 310 310 312 314 313 312 312 312 312 312 312 312
329 328 326 322 321 322 323 322 321 321 321 322 322 321 318 318 315 314 310 312 312 315 317 316 315 315 315 313 313 314 313 312
329 327 325 322 321 322 322 320 320 321 323 323 322 320 320 317 314 311 310 311 309 313 316 316 317 318 318 315 316 317 318 314
330 326 324 323 321 321 321 321 320 320 322 322 321 321 321 317 314 311 309 310 312 314 316 316 316 316 318 316 316 317 319 316
330 328 325 324 322 320 320 321 320 320 321 322 321 322 321 320 315 315 315 315 315 316 316 315 314 318 319 320 319 318 320 320
330 328 325 323 322 319 321 322 321 320 320 321 321 321 321 320 318 316 314 314 315 316 315 315 317 320 320 321 321 320 321 321
329 327 325 324 323 321 321 321 321 322 320 320 321 320 320 320 319 318 317 314 314 315 315 315 315 317 320 322 323 323 323 322
329 329 327 325 323 322 320 321 321 321 322 320 321 320 319 319 319 318 317 316 315 315 314 315 315 315 318 321 319 320 322 322
329 329 327 325 323 321 319 321 322 322 321 322 321 321 320 320 321 321 318 317 317 316 315 315 315 317 319 319 319 320 323 322
328 328 327 326 324 322 320 320 322 322 322 322 322 322 321 321 321 320 319 317 317 317 317 318 319 320 320 321 321 321 322 322
328 328 327 326 325 323 320 320 321 322 322 322 322 321 321 321 320 320 320 319 319 318 319 320 320 320 320 320 320 320 320 322
327 328 327 327 326 324 322 321 321 322 322 322 321 321 321 321 321 320 319 319 319 318 319 319 319 319 318 319 320 321 321 322
328 328 327 326 326 325 324 323 321 321 322 322 321 320 320 321 321 320 320 320 320 319 319 319 319 319 319 319 320 321 321 321
327 329 329 328 326 326 325 324 323 322 321 322 322 321 320 320 320 320 320 320 319 319 320 320 319 319 319 319 320 319 319 317
323 328 329 328 327 326 325 325 324 323 322 321 322 321 321 320 320 319 319 318 318 318 319 319 319 319 319 320 320 321 321 319
321 323 328 329 328 327 326 325 324 324 323 322 322 321 321 321 320 320 319 319 319 319 319 319 320 320 320 320 320 319 318 318
321 321 322 326 328 328 327 326 325 324 324 324 323 322 321 321 320 320 320 320 320 320 320 320 320 320 319 317 317 318 319 317
321 321 320 321 323 326 327 326 325 325 324 324 324 323 323 322 321 320 320 320 320 320 320 320 320 321 319 317 318 318 317 316
320 321 321 320 320 323 325 326 325 325 325 324 324 323 323 322 322 321 321 320 320 320 320 320 320 321 319 318 317 317 314 312

GFSFLT1_925_thetae_081.txt.gz
Theta_e
331 331 330 329 328 326 326 326 324 323 322 323 322 320 318 317 316 314 314 313 313 315 315 315 316 317 316 317 316 316 316 316
332 331 330 329 327 325 326 324 323 322 322 322 321 319 318 316 314 314 314 315 314 314 314 313 313 313 314 315 315 315 315 314
333 332 330 329 326 325 325 325 323 321 322 322 320 320 317 315 314 312 313 313 313 314 314 316 314 314 314 315 315 316 316 316
333 332 331 329 327 325 324 324 323 323 322 322 320 318 318 316 314 311 312 313 314 315 318 316 313 318 319 319 319 320 321 318
332 332 331 329 327 324 323 323 323 323 323 322 320 318 317 317 315 314 314 313 315 316 317 316 318 321 320 320 321 320 320 321
331 332 330 329 327 325 323 323 322 322 322 322 321 320 318 318 316 314 314 313 314 315 315 318 318 318 321 320 318 320 319 321
330 331 329 329 328 325 323 324 323 322 323 323 323 321 321 319 317 316 315 313 314 316 316 316 315 318 320 320 320 321 321 322
329 331 331 329 328 325 323 324 323 323 322 322 323 323 321 320 317 316 316 316 316 315 316 316 315 316 320 320 320 319 321 321
328 330 331 329 328 326 324 324 324 323 322 322 323 324 323 321 319 317 317 316 315 315 316 315 315 316 316 320 320 320 323 321
327 329 331 329 328 327 325 324 325 324 323 322 323 324 323 322 321 319 318 317 316 315 315 316 316 316 316 319 319 319 321 319
328 329 331 329 329 327 325 323 325 325 324 323 323 323 323 323 322 322 321 320 319 318 318 317 317 316 317 318 319 320 321 321
327 329 329 329 329 328 327 324 324 325 325 325 325 324 323 324 324 324 324 323 322 320 320 319 318 318 319 319 320 321 322 322
328 328 330 329 329 329 328 326 323 324 325 325 325 325 325 324 324 324 324 324 322 321 321 320 320 320 321 321 321 321 321 322
326 329 329 330 329 329 328 327 325 323 324 325 326 326 325 325 325 324 324 324 323 322 322 321 321 321 322 322 322 322 321 322
323 326 330 330 329 329 329 328 328 326 324 324 325 326 325 325 325 325 324 323 323 323 322 321 321 321 321 321 321 321 321 321
322 322 325 329 329 329 329 329 329 328 326 325 325 326 325 324 324 324 325 324 324 323 323 322 322 322 322 322 322 321 322 322
321 321 322 323 329 329 329 329 329 328 328 328 326 325 326 325 324 324 323 323 323 323 323 322 322 322 322 321 321 322 321 322
321 321 323 322 322 327 329 329 328 328 328 328 327 327 326 325 325 324 324 324 323 322 322 322 322 322 321 321 321 320 322 321
321 321 321 321 321 322 325 328 329 329 328 328 328 327 327 326 326 325 324 324 324 324 323 323 323 323 322 322 321 320 319 319